Lake Clear, NY

10:49 AM EST on December 08, 2016 (GMT -0500)
Adirondack Regional

Weather History for KSLK - April, 2014

Change the Weather History Date:

Tuesday, April 29, 2014

  Actual Average Record
Temperature  
Mean Temperature 45 °F 44 °F  
Max Temperature 56 °F 57 °F 81 °F (1962)
Min Temperature 33 °F 31 °F 15 °F (2001)
Degree Days  
Heating Degree Days 20 21  
Month to date heating degree days 786 789  
Since 1 July heating degree days 9322 8751  
Cooling Degree Days 0 0  
Month to date cooling degree days 0 0  
Year to date cooling degree days 0 0  
Moisture  
Dew Point 34 °F    
Average Humidity 68    
Maximum Humidity 100    
Minimum Humidity 35    
Precipitation  
Precipitation 0.43 in 0.11 in 0.43 in (2014)
Month to date precipitation 3.07 2.77  
Year to date precipitation 7.32 8.79  
Sea Level Pressure  
Sea Level Pressure 30.24 in    
Wind  
Wind Speed 9 mph (East)    
Max Wind Speed 21 mph    
Max Gust Speed 30 mph    
Visibility 8 miles    
Events Rain    
T = Trace of Precipitation, MM = Missing Value Source: NWS Daily Summary

Daily Weather History Graph

Daily Weather History Graph

Search for Another Location

Airport or City:

Trip Planner

Search our weather history database for the weather conditions in past years. The results will help you decide how hot, cold, wet, or windy it might be!

Date:

Astronomy

Apr. 29, 2014 Rise Set
Actual Time 5:50 AM EDT 7:58 PM EDT
Civil Twilight 5:18 AM EDT 8:30 PM EDT
Nautical Twilight 4:39 AM EDT 9:09 PM EDT
Astronomical Twilight 3:56 AM EDT 9:53 PM EDT
Moon 6:07 AM EDT (4/29) 8:36 PM EDT (4/29)
Length of Visible Light 15h 11m
Length of Day
14h 08m
New Moon, 0% of the Moon is Illuminated
Apr 29
New Moon
May 6
First Quarter
May 14
Full
May 21
Last Quarter
May 28
New

Hourly Weather History & Observations

Time (EDT) Temp. Windchill Dew Point Humidity Pressure Visibility Wind Dir Wind Speed Gust Speed Precip Events Conditions
12:51 AM 39.9 °F 35.1 °F 36.0 °F 86% 30.16 in 10.0 mi East 6.9 mph - N/A   Clear
1:51 AM 39.0 °F 34.8 °F 36.0 °F 89% 30.15 in 10.0 mi NE 5.8 mph - N/A   Clear
2:51 AM 39.9 °F 37.8 °F 36.0 °F 86% 30.16 in 10.0 mi ENE 3.5 mph - N/A   Clear
3:51 AM 39.0 °F 35.7 °F 36.0 °F 89% 30.20 in 10.0 mi ENE 4.6 mph - N/A   Scattered Clouds
4:51 AM 41.0 °F 39.0 °F 35.1 °F 79% 30.20 in 10.0 mi East 3.5 mph - N/A   Clear
5:51 AM 36.0 °F 32.1 °F 35.1 °F 97% 30.22 in 10.0 mi NNE 4.6 mph - N/A   Clear
7:51 AM 45.0 °F 40.6 °F 36.0 °F 71% 30.25 in 10.0 mi ESE 8.1 mph - N/A   Clear
8:51 AM 46.9 °F - 35.1 °F 63% 30.26 in 10.0 mi ESE 10.4 mph 20.7 mph N/A   Scattered Clouds
9:08 AM 48.0 °F - 35.1 °F 61% 30.24 in 10.0 mi East 10.4 mph - N/A   Mostly Cloudy
9:51 AM 46.0 °F 40.6 °F 36.0 °F 68% 30.27 in 10.0 mi East 11.5 mph - N/A   Mostly Cloudy
12:51 PM 53.1 °F - 32.0 °F 45% 30.27 in 10.0 mi East 15.0 mph 23.0 mph N/A   Clear
1:51 PM 54.0 °F - 30.0 °F 40% 30.25 in 10.0 mi ESE 12.7 mph 23.0 mph N/A   Clear
2:51 PM 55.0 °F - 28.0 °F 35% 30.23 in 10.0 mi East 11.5 mph 20.7 mph N/A   Clear
3:51 PM 52.0 °F - 25.0 °F 35% 30.23 in 10.0 mi SE 11.5 mph 24.2 mph N/A   Mostly Cloudy
4:51 PM 48.0 °F - 32.0 °F 54% 30.25 in 7.0 mi SE 11.5 mph 21.9 mph 0.00 in Rain Light Rain
5:51 PM 46.0 °F 40.6 °F 34.0 °F 63% 30.23 in 7.0 mi ESE 11.5 mph 24.2 mph 0.02 in Rain Light Rain
6:51 PM 43.0 °F 38.2 °F 36.0 °F 76% 30.25 in 4.0 mi ESE 8.1 mph - 0.04 in Rain Rain
7:51 PM 42.1 °F 39.2 °F 35.1 °F 76% 30.25 in 8.0 mi Variable 4.6 mph 16.1 mph 0.06 in Rain Light Rain
8:51 PM 39.9 °F 37.8 °F 37.9 °F 93% 30.34 in 4.0 mi Variable 3.5 mph - 0.10 in Rain Rain
10:51 PM 39.0 °F 32.8 °F 36.0 °F 89% 30.33 in 3.0 mi SSE 9.2 mph - 0.05 in Rain Light Rain
11:51 PM 39.0 °F 36.8 °F 36.0 °F 89% 30.32 in 4.0 mi Variable 3.5 mph - 0.05 in Rain Light Rain